Regional Weather Roundup
Issued by NWS

Home | Current Version | Previous Version | Text Only | Print | Product List | Glossary Off
Versions: 1 2 3 4 5 6 7 8 9 10 11 12 13 14 15 16 17 18 19 20 21 22 23 24 25 26 27 28 29 30 31 32 33 34 35 36 37 38 39 40 41 42 43 44 45 46 47 48 49 50

000
ASUS43 KLMK 280410
RWRKY
KENTUCKY REGIONAL WEATHER ROUNDUP
NATIONAL WEATHER SERVICE LOUISVILLE KY
1200 AM EDT SAT MAY 28 2016

NOTE "FAIR" INDICATES FEW OR NO CLOUDS BELOW 12,000 FEET
WITH NO SIGNIFICANT WEATHER AND/OR OBSTRUCTIONS TO VISIBILITY.

KYZ001>023-026-027-061>063-070>075-280500-
WESTERN AND SOUTH CENTRAL KENTUCKY

CITY           SKY/WX    TMP DP  RH WIND       PRES   REMARKS
PADUCAH        CLOUDY    77  63  61 S12G17    29.89R
HENDERSON      CLOUDY    75  63  64 SE7       29.91F
OWENSBORO      CLOUDY    77  67  71 SE10      29.96R
HOPKINSVILLE   CLEAR     76  64  65 S7        29.96R
BOWLING GREEN  CLOUDY    74  67  78 SE7       30.01R
GLASGOW        LGT RAIN  68  68  99 S5        30.04S
$$

KYZ024-025-028>034-038-045-046-053-280500-
NORTH CENTRAL KENTUCKY

CITY           SKY/WX    TMP DP  RH WIND       PRES   REMARKS
LOUISVILLE/SDF CLOUDY    76  61  59 S10       29.99R
LOUISVILLE/LOU LGT RAIN  74  65  73 VRB3      30.00S
FORT KNOX      MOCLDY    72  63  72 SE14G22   30.00R
$$

KYZ035>037-039>044-047>052-055>060-089>105-280500-
NORTHEAST KENTUCKY

CITY           SKY/WX    TMP DP  RH WIND       PRES   REMARKS
LEXINGTON      CLEAR     74  65  73 SE9       30.05S
COVINGTON      CLOUDY    74  65  73 S3        30.02S
FRANKFORT      PTCLDY    75  64  68 SE7       30.02S
$$

KYZ054-064>069-076>088-106>120-280500-
SOUTHEAST KENTUCKY

CITY           SKY/WX    TMP DP  RH WIND       PRES   REMARKS
JACKSON        CLOUDY    67  64  90 SE3       30.10R
LONDON         MOCLDY    69  65  86 SE3       30.08S
SOMERSET       PTCLDY    68  63  83 SE3       30.08R
MIDDLESBORO    CLOUDY    65  64  95 CALM      30.12S
MONTICELLO     CLEAR     70  65  84 W10       30.08R
$$





USA.gov is the U.S. government's official web portal to all federal, state and local government web resources and services.